Regional Weather Roundup
Issued by NWS

Home | Current Version | Previous Version | Text Only | Print | Product List | Glossary Off
Versions: 1 2 3 4 5 6 7 8 9 10 11 12 13 14 15 16 17 18 19 20 21 22 23 24 25 26 27 28 29 30 31 32 33 34 35 36 37 38 39 40 41 42 43 44 45 46 47 48 49 50

000
ASUS43 KMPX 260401
RWRMN
WEATHER ROUNDUP FOR MINNESOTA
NATIONAL WEATHER SERVICE TWIN CITIES/CHANHASSEN MN
1100 PM CDT MON SEP 25 2017


NOTE: "FAIR" INDICATES FEW OR NO CLOUDS BELOW 12,000 FEET WITH NO
SIGNIFICANT WEATHER AND/OR OBSTRUCTIONS TO VISIBILITY. N/A MEANS
CURRENT SKY AND/OR WEATHER CONDITIONS ARE NOT AVAILABLE.

MNZ060>063-068>070-260500-
   Twin Cities Metro

CITY           SKY/WX    TMP DP  RH WIND       PRES   REMARKS
TWIN CITIES    CLOUDY    59  58  96 NW8       29.97S
ST PAUL        CLOUDY    59  58  96 NW6       29.98S
CRYSTAL        LGT RAIN  58  53  84 N5        29.97S
BLAINE         DRIZZLE   59  57  94 N5        29.98S
LAKEVILLE      CLOUDY    57  57 100 NW6       29.96F
EDEN PRAIRIE   LGT RAIN  58  56  93 N6        29.96F
SOUTH ST PAUL  CLOUDY    60  58  95 NW3       29.97S
LAKE ELMO      DRIZZLE   59  57  94 N5        29.98F
$$
MNZ001>005-007-008-013>017-022>024-027-028-260500-
   Northwest Minnesota

CITY           SKY/WX    TMP DP  RH WIND       PRES   REMARKS
BEMIDJI        DRIZZLE   50  48  94 N6        30.05F
HALLOCK          N/A     52  48  87 N6        30.12S
ROSEAU           N/A     50  45  81 N6        30.10S
WARROAD        DRIZZLE   50  46  87 N6        30.10S
CROOKSTON      CLOUDY    52  48  87 N6        30.11R
FOSSTON        CLOUDY    48  46  93 N8        30.09S
DETROIT LAKES  LGT RAIN  52  50  93 N3        30.07S
MOORHEAD       RAIN      50  48  93 N7        30.08F
PARK RAPIDS    LGT RAIN  53  50  89 NE6       30.04R
MAHNOMEN       LGT RAIN  51  48  90 N5        30.07S
$$
MNZ006-009>011-018-025>026-260500-
   North Central Minnesota

CITY           SKY/WX    TMP DP  RH WIND       PRES   REMARKS
BAUDETTE       CLOUDY    50  48  93 NE7       30.08F
FLAG ISLAND    CLOUDY    52  46  82 E8        30.09F
INTL FALLS     CLOUDY    52  48  86 NE6       30.08F
WASKISH        CLOUDY    50  48  93 NE3       30.08R
BIG FORK       CLOUDY    52  50  93 N3        30.05F
LONGVILLE      RAIN      54  50  87 N5        30.02F
GRAND RAPIDS   LGT RAIN  52  50  93 N7        30.05F
CRANE LAKE     CLOUDY    52  50  93 N5        30.08F
ORR            CLOUDY    52  48  87 CALM      30.04S
WALKER         LGT RAIN  51  49  92 NE10      30.03F
$$
MNZ012-019>021-037-260500-
   Northeast Minnesota

CITY           SKY/WX    TMP DP  RH WIND       PRES   REMARKS
DULUTH         CLOUDY    55  55 100 N10       29.99F
ELY            DRIZZLE   54  52  94 NE5       30.05R
HIBBING        LGT RAIN  52  51  97 N6        30.03F
EVELETH        DRIZZLE   54  53  97 NE6       30.03F
GRAND MARAIS     N/A     59  54  83 NE10      30.03R
$$
MNZ029>031-032-039>041-046>048-054>057-064-260500-
   West Central Minnesota

CITY           SKY/WX    TMP DP  RH WIND       PRES   REMARKS
FERGUS FALLS   DRIZZLE   52  52 100 N5        30.06F
WHEATON        RAIN      50  48  93 NW6       30.06F
ALEXANDRIA     RAIN      53  52  96 N6        30.04S FOG
ELBOW LAKE     DRIZZLE   52  52  99 N6        30.04F
WADENA         RAIN      52  52 100 N3        30.04R
GLENWOOD       RAIN      54  52  94 NE9       30.02F
APPLETON       LGT RAIN  54  52  94 N9        30.01F
BENSON         DRIZZLE   54  52  94 N5        30.03S
ORTONVILLE     RAIN      52  48  87 N9        30.03F
MADISON        LGT RAIN  54  54 100 N8        30.02F
WILLMAR        DRIZZLE   55  55 100 NE8       30.01F
$$
MNZ033>034-036-042>043-049>051-058-059-260500-
   Central Minnesota

CITY           SKY/WX    TMP DP  RH WIND       PRES   REMARKS
ST CLOUD       CLOUDY    55  55 100 CALM      30.00S
SAUK CENTRE    LGT RAIN  53  52  96 N5        30.01F
PAYNESVILLE    DRIZZLE   55  54  99 NE7       30.00F
AITKIN         DRIZZLE   54  52  94 N7        30.01S
PINE RIVER     DRIZZLE   52  48  87 NE5       30.05F
BRAINERD       LGT RAIN  54  52  93 NE9       30.02F FOG
STAPLES        DRIZZLE   52  52 100 CALM      30.02F
LITTLE FALLS   DRIZZLE   54  50  87 CALM      30.01F
LITCHFIELD     DRIZZLE   55  55 100 N3        30.00F
BUFFALO        CLOUDY    55  53  92 N6        30.00S
MAPLE LAKE     RAIN      56  55  97 N5        30.00F
HUTCHINSON     RAIN      56  56  98 N3        30.00F
$$
MNZ037-044-045-052-053-260500-
   East Central Minnesota

CITY           SKY/WX    TMP DP  RH WIND       PRES   REMARKS
PRINCETON      RAIN      55  55 100 CALM      30.00R
MORA           CLOUDY    54  52  94 CALM      30.02S
RUSH CITY      CLOUDY    55  54  94 CALM      29.99S
MOOSE LAKE     LGT RAIN  54  52  94 N3        29.98F
HINCKLEY       CLOUDY    55  55 100 N3        29.99F
CLOQUET        LGT RAIN  55  52  88 N6        30.00F
MCGREGOR       CLOUDY    54  52  94 N5        30.02S
$$
MNZ071>073-080-081-089-090-097-098-260500-
   Southwest Minnesota

CITY           SKY/WX    TMP DP  RH WIND       PRES   REMARKS
MONTEVIDEO     HVY RAIN  54  52  94 N5        30.01F
GRANITE FALLS  DRIZZLE   55  54  96 NW6       30.02F
CANBY          RAIN      52  51  96 NW8       30.03F
MARSHALL       LGT RAIN  52  52 100 N8        30.01F
REDWOOD FALLS  CLOUDY    56  54  93 N3        29.99F
OLIVIA         CLOUDY    54  52  94 NE5       29.99F
PIPESTONE      DRIZZLE   52  50  93 NE5       30.00F
WORTHINGTON    LGT RAIN  54  53  97 N6        30.00R
JACKSON        DRIZZLE   55  55 100 CALM      29.98S
TRACY          DRIZZLE   54  54 100 N7        30.00F
SLAYTON        DRIZZLE   52  45  76 N9        30.01S
$$
MNZ065>067-074>077-082>085-091>093-260500-
   South Central Minnesota

CITY           SKY/WX    TMP DP  RH WIND       PRES   REMARKS
MANKATO        RAIN      58  57  97 N8        29.97F
NEW ULM        LGT RAIN  55  55 100 N7        29.97F
ST JAMES       RAIN      57  55  94 N5        29.98F
FAIRMONT       LGT RAIN  57  56  96 N7        29.97F
FARIBAULT      LGT RAIN  59  57  94 N3        29.96F
OWATONNA       DRIZZLE   59  57  94 NW5       29.97R
WASECA         RAIN      59  57  94 N3        29.97F
ALBERT LEA     RAIN      63  63 100 N3        29.96S
$$
MNZ078>079-086>088-094>096-260500-
   Southeast Minnesota

CITY           SKY/WX    TMP DP  RH WIND       PRES   REMARKS
ROCHESTER      LGT RAIN  62  61  96 CALM      29.96F
RED WING       CLOUDY    61  57  88 NW3       29.92F
STANTON        CLOUDY    60  58  92 N6        29.94F
DODGE CENTER   LGT RAIN  61  57  88 CALM      29.97R
WINONA         CLOUDY    64  63  94 CALM      29.93F
AUSTIN         LGT RAIN  63  61  94 CALM      29.98R
PRESTON        CLOUDY    63  62  94 CALM      29.96S FOG
$$
ABBREVIATIONS USED IN REMARKS
   TC - TEMPERATURES IN CELSIUS
  WCI - WIND CHILL INDEX
   HX - HEAT INDEX
  VSB - VISIBILITY
$$




USA.gov is the U.S. government's official web portal to all federal, state and local government web resources and services.